,Coso Junction,Coso Junction
,PM10_1HR,PM10_1HR
,,
Date,Value,Null Code
01-May-2018 00:00,4.7,
01-May-2018 01:00,5.4,
01-May-2018 02:00,13.5,
01-May-2018 03:00,5.2,
01-May-2018 04:00,6.5,
01-May-2018 05:00,7.2,
01-May-2018 06:00,6.4,
01-May-2018 07:00,1.2,
01-May-2018 08:00,5.4,
01-May-2018 09:00,1.8,
01-May-2018 10:00,3.5,
01-May-2018 11:00,3.8,
01-May-2018 12:00,6.9,
01-May-2018 13:00,22.3,
01-May-2018 14:00,9.4,
01-May-2018 15:00,3,
01-May-2018 16:00,4.1,
01-May-2018 17:00,6.8,
01-May-2018 18:00,9.1,
01-May-2018 19:00,4.4,
01-May-2018 20:00,6.9,
01-May-2018 21:00,6.7,
01-May-2018 22:00,3.9,
01-May-2018 23:00,5.4,
02-May-2018 00:00,1.3,
02-May-2018 01:00,2.5,
02-May-2018 02:00,4.9,
02-May-2018 03:00,4,
02-May-2018 04:00,5.4,
02-May-2018 05:00,12.4,
02-May-2018 06:00,8.6,
02-May-2018 07:00,8.2,
02-May-2018 08:00,-2.1,
02-May-2018 09:00,6.5,
02-May-2018 10:00,3.1,
02-May-2018 11:00,-1.8,
02-May-2018 12:00,22.9,
02-May-2018 13:00,10.8,
02-May-2018 14:00,7,
02-May-2018 15:00,5.2,
02-May-2018 16:00,10.5,
02-May-2018 17:00,6.4,
02-May-2018 18:00,8.5,
02-May-2018 19:00,9.1,
02-May-2018 20:00,13.7,
02-May-2018 21:00,10,
02-May-2018 22:00,10.5,
02-May-2018 23:00,8.8,
03-May-2018 00:00,8.1,
03-May-2018 01:00,8.2,
03-May-2018 02:00,7.5,
03-May-2018 03:00,8,
03-May-2018 04:00,9.6,
03-May-2018 05:00,14.9,
03-May-2018 06:00,3.3,
03-May-2018 07:00,6,
03-May-2018 08:00,7.3,
03-May-2018 09:00,7.3,
03-May-2018 10:00,5.7,
03-May-2018 11:00,4.9,
03-May-2018 12:00,4.6,
03-May-2018 13:00,7.2,
03-May-2018 14:00,13.9,
03-May-2018 15:00,8.2,
03-May-2018 16:00,10.3,
03-May-2018 17:00,11.7,
03-May-2018 18:00,14,
03-May-2018 19:00,16.4,
03-May-2018 20:00,21,
03-May-2018 21:00,19,
03-May-2018 22:00,18.7,
03-May-2018 23:00,17.3,
04-May-2018 00:00,17.3,
04-May-2018 01:00,15.4,
04-May-2018 02:00,13.4,
04-May-2018 03:00,13.1,
04-May-2018 04:00,17.7,
04-May-2018 05:00,12.9,
04-May-2018 06:00,11.3,
04-May-2018 07:00,10.6,
04-May-2018 08:00,9.5,
04-May-2018 09:00,6.7,
04-May-2018 10:00,8.3,
04-May-2018 11:00,8.3,
04-May-2018 12:00,7.8,
04-May-2018 13:00,8.5,
04-May-2018 14:00,12.1,
04-May-2018 15:00,8,
04-May-2018 16:00,8.8,
04-May-2018 17:00,8.9,
04-May-2018 18:00,13,
04-May-2018 19:00,32,
04-May-2018 20:00,26.8,
04-May-2018 21:00,16.6,
04-May-2018 22:00,14.9,
04-May-2018 23:00,15.8,
05-May-2018 00:00,12.1,
05-May-2018 01:00,13.6,
05-May-2018 02:00,15.4,
05-May-2018 03:00,15.7,
05-May-2018 04:00,15.9,
05-May-2018 05:00,58.3,
05-May-2018 06:00,19.1,
05-May-2018 07:00,29.9,
05-May-2018 08:00,7.2,
05-May-2018 09:00,7,
05-May-2018 10:00,8.4,
05-May-2018 11:00,7.3,
05-May-2018 12:00,8.5,
05-May-2018 13:00,9.8,
05-May-2018 14:00,9.1,
05-May-2018 15:00,8.4,
05-May-2018 16:00,11.5,
05-May-2018 17:00,8.8,
05-May-2018 18:00,13.8,
05-May-2018 19:00,14.6,
05-May-2018 20:00,16.3,
05-May-2018 21:00,17.5,
05-May-2018 22:00,15.5,
05-May-2018 23:00,22,
06-May-2018 00:00,18.4,
06-May-2018 01:00,18.2,
06-May-2018 02:00,15.4,
06-May-2018 03:00,19.2,
06-May-2018 04:00,21.3,
06-May-2018 05:00,23.3,
06-May-2018 06:00,20.4,
06-May-2018 07:00,21.7,
06-May-2018 08:00,21.9,
06-May-2018 09:00,13.6,
06-May-2018 10:00,14.4,
06-May-2018 11:00,14.1,
06-May-2018 12:00,11.9,
06-May-2018 13:00,15.8,
06-May-2018 14:00,17.3,
06-May-2018 15:00,9.4,
06-May-2018 16:00,11.4,
06-May-2018 17:00,6.9,
06-May-2018 18:00,-6.7,
06-May-2018 19:00,7.6,
06-May-2018 20:00,20,
06-May-2018 21:00,27.2,
06-May-2018 22:00,14.3,
06-May-2018 23:00,13.1,
07-May-2018 00:00,15,
07-May-2018 01:00,14.2,
07-May-2018 02:00,14.9,
07-May-2018 03:00,19.6,
07-May-2018 04:00,42,
07-May-2018 05:00,200.5,
07-May-2018 06:00,41,
07-May-2018 07:00,22.4,
07-May-2018 08:00,16.6,
07-May-2018 09:00,11.5,
07-May-2018 10:00,8.3,
07-May-2018 11:00,12,
07-May-2018 12:00,19.8,
07-May-2018 13:00,11.3,
07-May-2018 14:00,8.6,
07-May-2018 15:00,11.1,
07-May-2018 16:00,11.2,
07-May-2018 17:00,12.4,
07-May-2018 18:00,19.3,
07-May-2018 19:00,39.9,
07-May-2018 20:00,63.2,
07-May-2018 21:00,25.9,
07-May-2018 22:00,27.1,
07-May-2018 23:00,19.8,
08-May-2018 00:00,21.7,
08-May-2018 01:00,24.6,
08-May-2018 02:00,17.6,
08-May-2018 03:00,15.4,
08-May-2018 04:00,16.8,
08-May-2018 05:00,31.1,
08-May-2018 06:00,13.5,
08-May-2018 07:00,17.6,
08-May-2018 08:00,14.5,
08-May-2018 09:00,10.6,
08-May-2018 10:00,9.5,
08-May-2018 11:00,26.1,
08-May-2018 12:00,17.6,
08-May-2018 13:00,21.1,
08-May-2018 14:00,17.1,
08-May-2018 15:00,44.9,
08-May-2018 16:00,51.9,
08-May-2018 17:00,18.3,
08-May-2018 18:00,15.7,
08-May-2018 19:00,26,
08-May-2018 20:00,28.3,
08-May-2018 21:00,22.2,
08-May-2018 22:00,24.7,
08-May-2018 23:00,29.1,
09-May-2018 00:00,43.1,
09-May-2018 01:00,23.3,
09-May-2018 02:00,27.4,
09-May-2018 03:00,16.7,
09-May-2018 04:00,28.6,
09-May-2018 05:00,21.8,
09-May-2018 06:00,,AT
09-May-2018 07:00,,AT
09-May-2018 08:00,,AT
09-May-2018 09:00,,AT
09-May-2018 10:00,,AT
09-May-2018 11:00,,AT
09-May-2018 12:00,,AT
09-May-2018 13:00,,AT
09-May-2018 14:00,,AT
09-May-2018 15:00,,AT
09-May-2018 16:00,22.3,
09-May-2018 17:00,15.6,
09-May-2018 18:00,13.1,
09-May-2018 19:00,26.2,
09-May-2018 20:00,22.2,
09-May-2018 21:00,20.2,
09-May-2018 22:00,24.8,
09-May-2018 23:00,24.4,
10-May-2018 00:00,21.2,
10-May-2018 01:00,22.3,
10-May-2018 02:00,19.6,
10-May-2018 03:00,19.4,
10-May-2018 04:00,20.2,
10-May-2018 05:00,16.9,
10-May-2018 06:00,17.3,
10-May-2018 07:00,18.3,
10-May-2018 08:00,15.8,
10-May-2018 09:00,13,
10-May-2018 10:00,12.8,
10-May-2018 11:00,11.4,
10-May-2018 12:00,18.4,
10-May-2018 13:00,17.8,
10-May-2018 14:00,27,
10-May-2018 15:00,22.2,
10-May-2018 16:00,26.9,
10-May-2018 17:00,33.6,
10-May-2018 18:00,27.2,
10-May-2018 19:00,25,
10-May-2018 20:00,32.3,
10-May-2018 21:00,30.5,
10-May-2018 22:00,28.1,
10-May-2018 23:00,36.5,
11-May-2018 00:00,36.6,
11-May-2018 01:00,37,
11-May-2018 02:00,33,
11-May-2018 03:00,30.9,
11-May-2018 04:00,40,
11-May-2018 05:00,34,
11-May-2018 06:00,30.8,
11-May-2018 07:00,,AX
11-May-2018 08:00,13.1,
11-May-2018 09:00,18.3,
11-May-2018 10:00,40.6,
11-May-2018 11:00,19.5,
11-May-2018 12:00,43.8,
11-May-2018 13:00,27.8,
11-May-2018 14:00,33.3,
11-May-2018 15:00,26.8,
11-May-2018 16:00,26.7,
11-May-2018 17:00,29.6,
11-May-2018 18:00,241.3,
11-May-2018 19:00,304.4,
11-May-2018 20:00,378.9,
11-May-2018 21:00,256.8,
11-May-2018 22:00,81.1,
11-May-2018 23:00,24,
12-May-2018 00:00,22.7,
12-May-2018 01:00,31.6,
12-May-2018 02:00,26.2,
12-May-2018 03:00,23.8,
12-May-2018 04:00,21.3,
12-May-2018 05:00,18.2,
12-May-2018 06:00,17.6,
12-May-2018 07:00,16.6,
12-May-2018 08:00,16.1,
12-May-2018 09:00,17.1,
12-May-2018 10:00,21.8,
12-May-2018 11:00,41.2,
12-May-2018 12:00,56.2,
12-May-2018 13:00,37.6,
12-May-2018 14:00,25.7,
12-May-2018 15:00,23,
12-May-2018 16:00,23.1,
12-May-2018 17:00,23.4,
12-May-2018 18:00,22.5,
12-May-2018 19:00,36.8,
12-May-2018 20:00,39.5,
12-May-2018 21:00,31.9,
12-May-2018 22:00,17.6,
12-May-2018 23:00,17.4,
13-May-2018 00:00,11.5,
13-May-2018 01:00,10,
13-May-2018 02:00,9.5,
13-May-2018 03:00,11.5,
13-May-2018 04:00,13.2,
13-May-2018 05:00,11.9,
13-May-2018 06:00,10.8,
13-May-2018 07:00,10.6,
13-May-2018 08:00,11.1,
13-May-2018 09:00,7.6,
13-May-2018 10:00,11.1,
13-May-2018 11:00,9.8,
13-May-2018 12:00,14.5,
13-May-2018 13:00,13.1,
13-May-2018 14:00,12.6,
13-May-2018 15:00,17.1,
13-May-2018 16:00,20.5,
13-May-2018 17:00,20.6,
13-May-2018 18:00,26.4,
13-May-2018 19:00,25.3,
13-May-2018 20:00,27.7,
13-May-2018 21:00,30.3,
13-May-2018 22:00,31.5,
13-May-2018 23:00,21.3,
14-May-2018 00:00,13.4,
14-May-2018 01:00,9.3,
14-May-2018 02:00,8.4,
14-May-2018 03:00,9,
14-May-2018 04:00,8.3,
14-May-2018 05:00,8.3,
14-May-2018 06:00,7.1,
14-May-2018 07:00,7.2,
14-May-2018 08:00,6.7,
14-May-2018 09:00,8.7,
14-May-2018 10:00,10.4,
14-May-2018 11:00,22.8,
14-May-2018 12:00,19.9,
14-May-2018 13:00,19.6,
14-May-2018 14:00,19.4,
14-May-2018 15:00,19.4,
14-May-2018 16:00,19.9,
14-May-2018 17:00,20.6,
14-May-2018 18:00,16.2,
14-May-2018 19:00,15.3,
14-May-2018 20:00,13.2,
14-May-2018 21:00,11.4,
14-May-2018 22:00,9.8,
14-May-2018 23:00,9.8,
15-May-2018 00:00,9.3,
15-May-2018 01:00,8.3,
15-May-2018 02:00,8.2,
15-May-2018 03:00,9.1,
15-May-2018 04:00,12.1,
15-May-2018 05:00,10.1,
15-May-2018 06:00,9.1,
15-May-2018 07:00,7,
15-May-2018 08:00,7.9,
15-May-2018 09:00,23.7,
15-May-2018 10:00,22.8,
15-May-2018 11:00,24.5,
15-May-2018 12:00,20.2,
15-May-2018 13:00,23.3,
15-May-2018 14:00,21,
15-May-2018 15:00,21.6,
15-May-2018 16:00,26.3,
15-May-2018 17:00,25.8,
15-May-2018 18:00,31.5,
15-May-2018 19:00,25,
15-May-2018 20:00,23.7,
15-May-2018 21:00,35.8,
15-May-2018 22:00,30,
15-May-2018 23:00,30.3,
16-May-2018 00:00,35.2,
16-May-2018 01:00,30.9,
16-May-2018 02:00,31.1,
16-May-2018 03:00,27.7,
16-May-2018 04:00,34.7,
16-May-2018 05:00,33.2,
16-May-2018 06:00,33.5,
16-May-2018 07:00,31.7,
16-May-2018 08:00,26.7,
16-May-2018 09:00,22.9,
16-May-2018 10:00,30.2,
16-May-2018 11:00,37.6,
16-May-2018 12:00,23.8,
16-May-2018 13:00,45.7,
16-May-2018 14:00,16.5,
16-May-2018 15:00,20.8,
16-May-2018 16:00,15.7,
16-May-2018 17:00,13.3,
16-May-2018 18:00,21.2,
16-May-2018 19:00,14.9,
16-May-2018 20:00,11.9,
16-May-2018 21:00,10.9,
16-May-2018 22:00,7.1,
16-May-2018 23:00,11,
17-May-2018 00:00,15.2,
17-May-2018 01:00,18,
17-May-2018 02:00,16,
17-May-2018 03:00,15.6,
17-May-2018 04:00,15,
17-May-2018 05:00,14.3,
17-May-2018 06:00,16.5,
17-May-2018 07:00,14.6,
17-May-2018 08:00,17.3,
17-May-2018 09:00,14.7,
17-May-2018 10:00,9.2,
17-May-2018 11:00,10.3,
17-May-2018 12:00,15.1,
17-May-2018 13:00,15.3,
17-May-2018 14:00,20.9,
17-May-2018 15:00,19.1,
17-May-2018 16:00,21.1,
17-May-2018 17:00,21,
17-May-2018 18:00,16,
17-May-2018 19:00,20.9,
17-May-2018 20:00,21.6,
17-May-2018 21:00,30.3,
17-May-2018 22:00,28.4,
17-May-2018 23:00,25.7,
18-May-2018 00:00,26.1,
18-May-2018 01:00,23.4,
18-May-2018 02:00,21.7,
18-May-2018 03:00,16.8,
18-May-2018 04:00,14,
18-May-2018 05:00,14.3,
18-May-2018 06:00,18,
18-May-2018 07:00,19.7,
18-May-2018 08:00,12.5,
18-May-2018 09:00,8.2,
18-May-2018 10:00,9.1,
18-May-2018 11:00,12,
18-May-2018 12:00,14.3,
18-May-2018 13:00,15.1,
18-May-2018 14:00,21.9,
18-May-2018 15:00,18.3,
18-May-2018 16:00,27.4,
18-May-2018 17:00,16.5,
18-May-2018 18:00,15.5,
18-May-2018 19:00,21.3,
18-May-2018 20:00,24,
18-May-2018 21:00,31.7,
18-May-2018 22:00,27.7,
18-May-2018 23:00,31.2,
19-May-2018 00:00,21,
19-May-2018 01:00,18.6,
19-May-2018 02:00,14.5,
19-May-2018 03:00,18.8,
19-May-2018 04:00,14.3,
19-May-2018 05:00,17.3,
19-May-2018 06:00,14.8,
19-May-2018 07:00,10,
19-May-2018 08:00,8.7,
19-May-2018 09:00,11.1,
19-May-2018 10:00,19.8,
19-May-2018 11:00,21.9,
19-May-2018 12:00,31.2,
19-May-2018 13:00,37.2,
19-May-2018 14:00,22,
19-May-2018 15:00,15,
19-May-2018 16:00,13.5,
19-May-2018 17:00,15.2,
19-May-2018 18:00,13.3,
19-May-2018 19:00,18.1,
19-May-2018 20:00,18.9,
19-May-2018 21:00,16.4,
19-May-2018 22:00,15.8,
19-May-2018 23:00,15.6,
20-May-2018 00:00,16.4,
20-May-2018 01:00,15.7,
20-May-2018 02:00,16,
20-May-2018 03:00,15.6,
20-May-2018 04:00,17.2,
20-May-2018 05:00,14.2,
20-May-2018 06:00,14.3,
20-May-2018 07:00,14.9,
20-May-2018 08:00,13.6,
20-May-2018 09:00,17.8,
20-May-2018 10:00,19.7,
20-May-2018 11:00,17.4,
20-May-2018 12:00,21.7,
20-May-2018 13:00,28.4,
20-May-2018 14:00,23.6,
20-May-2018 15:00,20.2,
20-May-2018 16:00,18.7,
20-May-2018 17:00,26.3,
20-May-2018 18:00,19,
20-May-2018 19:00,19.3,
20-May-2018 20:00,26.5,
20-May-2018 21:00,24.3,
20-May-2018 22:00,24.9,
20-May-2018 23:00,23.4,
21-May-2018 00:00,30.5,
21-May-2018 01:00,30.4,
21-May-2018 02:00,21.7,
21-May-2018 03:00,25.2,
21-May-2018 04:00,25.7,
21-May-2018 05:00,14.2,
21-May-2018 06:00,11.9,
21-May-2018 07:00,14.4,
21-May-2018 08:00,13.2,
21-May-2018 09:00,10.4,
21-May-2018 10:00,7.3,
21-May-2018 11:00,21.3,
21-May-2018 12:00,22.5,
21-May-2018 13:00,20.1,
21-May-2018 14:00,4.4,
21-May-2018 15:00,10.2,
21-May-2018 16:00,8,
21-May-2018 17:00,9.4,
21-May-2018 18:00,12.1,
21-May-2018 19:00,11.3,
21-May-2018 20:00,14.4,
21-May-2018 21:00,9.4,
21-May-2018 22:00,11,
21-May-2018 23:00,8.2,
22-May-2018 00:00,7.1,
22-May-2018 01:00,6.6,
22-May-2018 02:00,8.6,
22-May-2018 03:00,8.3,
22-May-2018 04:00,7.4,
22-May-2018 05:00,8.2,
22-May-2018 06:00,9.2,
22-May-2018 07:00,,AX
22-May-2018 08:00,,AX
22-May-2018 09:00,,AX
22-May-2018 10:00,1.9,
22-May-2018 11:00,4.7,
22-May-2018 12:00,8.7,
22-May-2018 13:00,12.2,
22-May-2018 14:00,12.4,
22-May-2018 15:00,14.5,
22-May-2018 16:00,20.6,
22-May-2018 17:00,25.2,
22-May-2018 18:00,21,
22-May-2018 19:00,24.4,
22-May-2018 20:00,35.7,
22-May-2018 21:00,38.2,
22-May-2018 22:00,37.6,
22-May-2018 23:00,33.7,
23-May-2018 00:00,29.3,
23-May-2018 01:00,18.4,
23-May-2018 02:00,12.4,
23-May-2018 03:00,14.4,
23-May-2018 04:00,14.8,
23-May-2018 05:00,12.9,
23-May-2018 06:00,12.6,
23-May-2018 07:00,8.7,
23-May-2018 08:00,23.4,
23-May-2018 09:00,20.1,
23-May-2018 10:00,23.3,
23-May-2018 11:00,26.9,
23-May-2018 12:00,22.2,
23-May-2018 13:00,19,
23-May-2018 14:00,17.1,
23-May-2018 15:00,19.6,
23-May-2018 16:00,25.3,
23-May-2018 17:00,20,
23-May-2018 18:00,98.3,
23-May-2018 19:00,34.8,
23-May-2018 20:00,30.1,
23-May-2018 21:00,33.4,
23-May-2018 22:00,36.4,
23-May-2018 23:00,37.7,
24-May-2018 00:00,34.5,
24-May-2018 01:00,38.9,
24-May-2018 02:00,33.8,
24-May-2018 03:00,31,
24-May-2018 04:00,35.4,
24-May-2018 05:00,31.9,
24-May-2018 06:00,36.3,
24-May-2018 07:00,42.3,
24-May-2018 08:00,26.9,
24-May-2018 09:00,21.2,
24-May-2018 10:00,25.9,
24-May-2018 11:00,29.4,
24-May-2018 12:00,23.7,
24-May-2018 13:00,20.8,
24-May-2018 14:00,24.4,
24-May-2018 15:00,34.3,
24-May-2018 16:00,20.8,
24-May-2018 17:00,11.2,
24-May-2018 18:00,19.6,
24-May-2018 19:00,26.6,
24-May-2018 20:00,3.4,
24-May-2018 21:00,18.1,
24-May-2018 22:00,25.7,
24-May-2018 23:00,28.1,
25-May-2018 00:00,30.1,
25-May-2018 01:00,29.8,
25-May-2018 02:00,44.5,
25-May-2018 03:00,41.5,
25-May-2018 04:00,44.6,
25-May-2018 05:00,53.2,
25-May-2018 06:00,38.1,
25-May-2018 07:00,39.2,
25-May-2018 08:00,33.5,
25-May-2018 09:00,32.3,
25-May-2018 10:00,32.3,
25-May-2018 11:00,27.1,
25-May-2018 12:00,85.3,
25-May-2018 13:00,81.1,
25-May-2018 14:00,59.7,
25-May-2018 15:00,27.1,
25-May-2018 16:00,28.2,
25-May-2018 17:00,13.3,
25-May-2018 18:00,19.6,
25-May-2018 19:00,47.2,
25-May-2018 20:00,23.5,
25-May-2018 21:00,16.1,
25-May-2018 22:00,19.4,
25-May-2018 23:00,14.8,
26-May-2018 00:00,13.1,
26-May-2018 01:00,13.9,
26-May-2018 02:00,17.9,
26-May-2018 03:00,18.2,
26-May-2018 04:00,19.8,
26-May-2018 05:00,16.1,
26-May-2018 06:00,19.2,
26-May-2018 07:00,11.4,
26-May-2018 08:00,7.8,
26-May-2018 09:00,8.9,
26-May-2018 10:00,5.8,
26-May-2018 11:00,6.5,
26-May-2018 12:00,14.8,
26-May-2018 13:00,9.1,
26-May-2018 14:00,7.8,
26-May-2018 15:00,10.8,
26-May-2018 16:00,12.7,
26-May-2018 17:00,11.8,
26-May-2018 18:00,10.7,
26-May-2018 19:00,14.6,
26-May-2018 20:00,24,
26-May-2018 21:00,35.7,
26-May-2018 22:00,24.4,
26-May-2018 23:00,20.8,
27-May-2018 00:00,11.2,
27-May-2018 01:00,8,
27-May-2018 02:00,3.9,
27-May-2018 03:00,5.9,
27-May-2018 04:00,4.5,
27-May-2018 05:00,8.3,
27-May-2018 06:00,12.9,
27-May-2018 07:00,9.3,
27-May-2018 08:00,6.1,
27-May-2018 09:00,7.9,
27-May-2018 10:00,5.9,
27-May-2018 11:00,5.3,
27-May-2018 12:00,4.8,
27-May-2018 13:00,5.2,
27-May-2018 14:00,7.8,
27-May-2018 15:00,27.2,
27-May-2018 16:00,53.8,
27-May-2018 17:00,3.3,
27-May-2018 18:00,9.7,
27-May-2018 19:00,9.1,
27-May-2018 20:00,9.2,
27-May-2018 21:00,3.4,
27-May-2018 22:00,5.2,
27-May-2018 23:00,6.3,
28-May-2018 00:00,6.6,
28-May-2018 01:00,9.4,
28-May-2018 02:00,10.2,
28-May-2018 03:00,9.6,
28-May-2018 04:00,10.3,
28-May-2018 05:00,11,
28-May-2018 06:00,7.4,
28-May-2018 07:00,8.9,
28-May-2018 08:00,8.4,
28-May-2018 09:00,9.3,
28-May-2018 10:00,6.1,
28-May-2018 11:00,5.9,
28-May-2018 12:00,7.6,
28-May-2018 13:00,7.4,
28-May-2018 14:00,6.8,
28-May-2018 15:00,6.9,
28-May-2018 16:00,11.1,
28-May-2018 17:00,10.3,
28-May-2018 18:00,13.9,
28-May-2018 19:00,19.9,
28-May-2018 20:00,28.9,
28-May-2018 21:00,23.9,
28-May-2018 22:00,27.7,
28-May-2018 23:00,25.1,
29-May-2018 00:00,18.4,
29-May-2018 01:00,14.5,
29-May-2018 02:00,13.2,
29-May-2018 03:00,14.1,
29-May-2018 04:00,14.2,
29-May-2018 05:00,14.4,
29-May-2018 06:00,13.1,
29-May-2018 07:00,18.8,
29-May-2018 08:00,10.9,
29-May-2018 09:00,10,
29-May-2018 10:00,6.8,
29-May-2018 11:00,9.9,
29-May-2018 12:00,10.6,
29-May-2018 13:00,11.1,
29-May-2018 14:00,17.7,
29-May-2018 15:00,13.1,
29-May-2018 16:00,11.4,
29-May-2018 17:00,26.7,
29-May-2018 18:00,21.8,
29-May-2018 19:00,18.1,
29-May-2018 20:00,30.3,
29-May-2018 21:00,22.9,
29-May-2018 22:00,19.7,
29-May-2018 23:00,16.4,
30-May-2018 00:00,21.8,
30-May-2018 01:00,24.1,
30-May-2018 02:00,20.8,
30-May-2018 03:00,21.5,
30-May-2018 04:00,22.5,
30-May-2018 05:00,23.9,
30-May-2018 06:00,28.1,
30-May-2018 07:00,,BL
30-May-2018 08:00,0.5,
30-May-2018 09:00,25.8,
30-May-2018 10:00,40.2,
30-May-2018 11:00,29,
30-May-2018 12:00,39.6,
30-May-2018 13:00,24.8,
30-May-2018 14:00,23.8,
30-May-2018 15:00,25.8,
30-May-2018 16:00,38.2,
30-May-2018 17:00,48.1,
30-May-2018 18:00,39.6,
30-May-2018 19:00,28.1,
30-May-2018 20:00,25.8,
30-May-2018 21:00,26.1,
30-May-2018 22:00,23.2,
30-May-2018 23:00,26.9,
31-May-2018 00:00,19.8,
31-May-2018 01:00,14.3,
31-May-2018 02:00,28.7,
31-May-2018 03:00,24.7,
31-May-2018 04:00,26.4,
31-May-2018 05:00,25.4,
31-May-2018 06:00,25.6,
31-May-2018 07:00,28.7,
31-May-2018 08:00,32.1,
31-May-2018 09:00,7.1,
31-May-2018 10:00,9.9,
31-May-2018 11:00,18.8,
31-May-2018 12:00,11.1,
31-May-2018 13:00,16.9,
31-May-2018 14:00,20.2,
31-May-2018 15:00,12.8,
31-May-2018 16:00,40.9,
31-May-2018 17:00,49.4,
31-May-2018 18:00,55.3,
31-May-2018 19:00,34.5,
31-May-2018 20:00,28.9,
31-May-2018 21:00,31.2,
31-May-2018 22:00,28.4,
31-May-2018 23:00,31.8,
